Location: Unspecified
(0.0000°N, 0.0000°E)
Time: 20:25:09
(UTC+00:00)

Nadezhda 6 - Pass Details

Date: 19 June 2023
Orbit: 658 x 676 km, 97.8° (Epoch: 24 September)

Event Time Altitude Azimuth Distance (km) Brightness Sun altitude
Rises 18:27:39 0° 182° (S) 3,004 8.9 -6.0°
Reaches altitude 10° 18:29:59 10° 190° (S) 2,092 8.1 -6.6°
Maximum altitude 18:34:14 39° 258° (WSW) 1,009 7.2 -7.5°
Drops below altitude 10° 18:38:29 10° 327° (NNW) 2,095 9.2 -8.5°
Sets 18:40:50 0° 335° (NNW) 3,008 9.9 -9.0°
